Погода в Омолоне

Россия / Чукотский автономный округ     65°14′08″N   160°32′15″E
темп.,
°C
ветер,
м/с
пор.,
м/с
влажн.,
%
обл.,
%
осадки,
мм/ч
давл.,
гПа
погр.,
м
17 апреля, сб
сб1700:00−9ююз2495100 0.7 100672
03:00−11ю2295100 0.5 100814
06:00−17ююв229842 0.6 101111
09:00−12ююв35848 0.0 1012205
12:00−7юв357643 0.0 1011502
15:00−5ююв467061 0.0 1009778
18:00−5ююв577674 0.0 1009541
21:00−14юв23885 0.0 101010
18 апреля, вс
вс1800:00−21юв12997 0.0 10119
03:00−24ююв2210063 0.0 10139
06:00−25ююв2210044 0.0 101410
09:00−15вюв239040 0.0 1013173
12:00−7юв47745 0.0 1010410
15:00−3ююв696810 0.0 1009559
18:00−3ююв4975100 0.0 1009463
21:00−9ю238323 0.0 101220
19 апреля, пн
пн1900:00−14ююв229188 0.0 101712
03:00−16юв22939 0.0 102015
06:00−20ююв229832 0.0 102510
09:00−11вюв228611 0.0 1027125
12:00−7вюв22785 0.0 1029277
15:00−3вюв23795 0.0 1030395
18:00−1в23795 0.0 1030376
21:00−8в11865 0.0 103110
20 апреля, вт
вт2000:00−13юв229180 0.0 10329
03:00−15юв229542 0.0 103310
06:00−17ююв229510 0.0 10349
09:00−7вюв3585100 0.0 1033146
12:000вюв5994100 0.0 1030297
15:00+1вюв5898100 0.0 1029177
18:00+2вюв589256 0.0 1029191
21:000вюв4777100 0.0 1030105
21 апреля, ср
ср2100:00−3юв478391 0.0 103195
03:00−7юв348699 0.0 103139
06:00−13ююв329592 0.0 103313
09:00−5юв488865 0.0 1032198
12:000юв510967 0.0 1031574
15:00+1юв499922 0.0 1030357
18:00+1юв4795100 0.0 1030208
21:00−3вюв3485100 0.0 103031